Location: Berville
(49.1893°N, 2.0748°E)
Time: 17:56:51
(UTC+00:00)

Cosmos 2322 Rocket - Pass Details

Date: 08 February 2023
Orbit: 831 x 852 km, 71.0° (Epoch: 29 March)

Event Time Altitude Azimuth Distance (km) Brightness Sun altitude
Rises 18:44:25 0° 241° (WSW) 3,369 6.5 -17.5°
Reaches altitude 10° 18:47:08 10° 251° (WSW) 2,439 5.8 -17.9°
Maximum altitude 18:52:02 31° 313° (NW) 1,442 3.8 -18.7°
Drops below altitude 10° 18:56:59 10° 15° (NNE) 2,458 4.5 -19.5°
Enters shadow 18:58:57 - 23° (NNE) 3,119 4.9 -19.8°
